GW0890 Weather Reports


time (UTC)temp
C
wind
direction
speed
KPH
gust
KPH
rain 1hr
cm
rain 24hr
cm
rain mn
cm
humidity
%
barometer
mb
20260509134623 15 21 0.0 1.6 0.00 0.00 0.00 73 1008.7
20260509133049 14 21 0.0 3.2 0.00 0.00 0.00 73 1008.7
20260509131549 14 21 3.2 8.0 0.00 0.00 0.00 75 1008.6
20260509130041 13 27 4.8 8.0 0.00 0.00 0.00 80 1008.3
20260509124535 12 59 0.0 0.0 0.00 0.00 0.00 85 1008.2
20260509123032 12 55 0.0 0.0 0.00 0.00 0.00 87 1008.7
20260509121530 11 55 0.0 0.0 0.00 0.00 0.00 87 1008.8
20260509120028 11 55 0.0 0.0 0.00 0.00 0.00 88 1008.8
20260509114531 11 55 0.0 0.0 0.00 0.00 0.00 89 1008.6
20260509113027 10 55 0.0 0.0 0.00 0.00 0.00 89 1008.6
20260509111524 10 55 0.0 0.0 0.00 0.00 0.00 88 1008.4
20260509110024 10 55 0.0 0.0 0.00 0.00 0.00 88 1008.3
20260509104523 10 55 0.0 0.0 0.00 0.00 0.00 88 1008.5
20260509103023 10 55 0.0 0.0 0.00 0.00 0.00 88 1008.3
20260509101554 10 55 0.0 0.0 0.00 0.00 0.00 88 1008.2
20260509100051 10 55 0.0 0.0 0.00 0.00 0.00 88 1008.2
20260509094549 10 55 0.0 0.0 0.00 0.00 0.00 88 1008.3
20260509093052 10 55 0.0 0.0 0.00 0.00 0.00 88 1008.4
20260509091550 10 56 0.0 0.0 0.00 0.00 0.00 88 1008.4
20260509090047 10 56 0.0 0.0 0.00 0.00 0.00 88 1008.4
20260509084546 10 56 0.0 0.0 0.00 0.00 0.00 88 1008.4
20260509083047 10 55 0.0 0.0 0.00 0.00 0.00 88 1008.7
20260509081548 10 56 0.0 0.0 0.00 0.00 0.00 88 1008.7
20260509080041 10 56 0.0 0.0 0.00 0.00 0.00 87 1008.7
20260509074548 10 57 0.0 0.0 0.00 0.00 0.00 86 1008.8
20260509073037 10 58 0.0 0.0 0.00 0.00 0.00 85 1008.8
20260509071536 10 59 0.0 0.0 0.00 0.00 0.00 85 1008.8
20260509070036 10 56 0.0 0.0 0.00 0.00 0.00 85 1009.0
20260509064541 10 53 0.0 0.0 0.00 0.00 0.00 87 1008.9
20260509063037 10 53 0.0 0.0 0.00 0.00 0.00 87 1008.8
20260509061532 10 53 0.0 0.0 0.00 0.00 0.00 86 1008.8
20260509060030 10 54 0.0 0.0 0.00 0.00 0.00 85 1009.0
20260509054525 10 56 0.0 0.0 0.00 0.00 0.00 82 1009.0
20260509053025 11 56 0.0 0.0 0.00 0.00 0.00 82 1009.2
20260509051526 11 53 0.0 0.0 0.00 0.00 0.00 83 1009.2
20260509050022 11 55 0.0 0.0 0.00 0.00 0.00 81 1009.2
20260509044515 12 54 0.0 0.0 0.00 0.00 0.00 79 1009.0
20260509043013 12 55 0.0 0.0 0.00 0.00 0.00 79 1009.0
20260509041512 12 55 0.0 0.0 0.00 0.00 0.00 78 1009.2
20260509040010 12 55 0.0 3.2 0.00 0.00 0.00 78 1009.3
20260509034526 12 55 0.0 0.0 0.00 0.00 0.00 78 1009.4
20260509033010 12 56 1.6 3.2 0.00 0.00 0.00 76 1009.7
20260509031508 12 57 1.6 6.4 0.00 0.00 0.00 76 1009.9
20260509030004 12 59 0.0 1.6 0.00 0.00 0.00 75 1009.9
20260509024502 12 58 0.0 3.2 0.00 0.00 0.00 73 1010.0
20260509023003 13 60 0.0 4.8 0.00 0.00 0.00 71 1010.1
20260509021502 13 60 0.0 0.0 0.00 0.00 0.00 68 1010.3
20260509020000 14 59 0.0 0.0 0.00 0.00 0.00 65 1009.9
20260509014600 15 51 0.0 0.0 0.00 0.00 0.00 63 1009.9
20260509013059 15 44 0.0 0.0 0.00 0.00 0.00 61 1009.7
20260509011557 16 44 0.0 0.0 0.00 0.00 0.00 60 1009.6
20260509004620 17 31 0.0 6.4 0.00 0.00 0.00 54 1009.7
20260509003052 18 30 0.0 6.4 0.00 0.00 0.00 49 1009.9
20260509001554 20 29 0.0 3.2 0.00 0.00 0.00 39 1009.9
20260509000050 20 28 0.0 6.4 0.00 0.00 0.00 39 1009.8
20260508234551 20 26 6.4 12.9 0.00 0.00 0.00 38 1009.7
20260508233048 20 74 8.0 16.1 0.00 0.00 0.00 37 1009.6
20260508231547 20 24 8.0 22.5 0.00 0.00 0.00 37 1009.6
20260508230048 21 40 9.7 16.1 0.00 0.00 0.00 37 1009.7
20260508224551 21 23 9.7 24.1 0.00 0.00 0.00 37 1009.9
20260508223049 21 56 11.3 24.1 0.00 0.00 0.00 36 1010.0
20260508221543 21 61 9.7 17.7 0.00 0.00 0.00 38 1009.8
20260508220040 21 337 11.3 17.7 0.00 0.00 0.00 35 1009.8
20260508214556 21 64 9.7 17.7 0.00 0.00 0.00 37 1009.9
20260508213037 21 16 11.3 33.8 0.00 0.00 0.00 37 1009.9
20260508211536 21 318 9.7 22.5 0.00 0.00 0.00 37 1010.0
20260508210037 21 16 11.3 30.6 0.00 0.00 0.00 37 1010.1
20260508204537 21 82 8.0 20.9 0.00 0.00 0.00 36 1010.2
20260508203031 21 61 12.9 22.5 0.00 0.00 0.00 36 1010.4
20260508201531 21 26 6.4 24.1 0.00 0.00 0.00 40 1010.4
20260508200027 21 300 11.3 24.1 0.00 0.00 0.00 37 1010.6
20260508194525 21 33 12.9 22.5 0.00 0.00 0.00 38 1011.0
20260508193021 21 329 8.0 19.3 0.00 0.00 0.00 38 1011.2
20260508191619 21 342 14.5 30.6 0.00 0.00 0.00 38 1011.5
20260508190036 21 350 8.0 20.9 0.00 0.00 0.00 40 1011.9
20260508184527 21 9 12.9 20.9 0.00 0.00 0.00 39 1012.4
20260508183055 20 346 11.3 25.7 0.00 0.00 0.00 39 1012.5
20260508181540 20 83 9.7 25.7 0.00 0.00 0.00 38 1012.8
20260508180047 20 117 9.7 22.5 0.00 0.00 0.00 40 1012.9
20260508174542 20 32 8.0 14.5 0.00 0.00 0.00 41 1013.1
20260508173032 20 116 12.9 22.5 0.00 0.00 0.00 38 1013.3
20260508171529 20 76 9.7 17.7 0.00 0.00 0.00 41 1013.5
20260508170107 20 306 8.0 25.7 0.00 0.00 0.00 42 1013.8
20260508164559 20 355 11.3 22.5 0.00 0.00 0.00 42 1014.1
20260508163052 19 39 9.7 17.7 0.00 0.00 0.00 42 1014.3
20260508161549 18 76 4.8 17.7 0.00 0.00 0.00 47 1014.8
20260508160046 18 11 11.3 22.5 0.00 0.00 0.00 44 1015.0
20260508154544 17 63 6.4 22.5 0.00 0.00 0.00 46 1015.1
20260508153026 17 51 9.7 17.7 0.00 0.00 0.00 46 1015.1
20260508151511 17 317 9.7 14.5 0.00 0.00 0.00 49 1015.0
20260508150055 16 61 11.3 17.7 0.00 0.00 0.00 53 1015.2
20260508144554 15 98 9.7 14.5 0.00 0.00 0.00 53 1015.2
20260508143057 15 38 11.3 19.3 0.00 0.00 0.00 55 1015.3
20260508141600 13 24 4.8 17.7 0.00 0.00 0.00 58 1015.2
20260508140045 13 58 6.4 11.3 0.00 0.00 0.00 63 1015.3